Hourly Data Report for October 03, 2017

All times are specified in Local Standard Time (LST). Add 1 hour to adjust for Daylight Saving Time where and when it is observed.

MELITA
MANITOBA

49°16'52.600" N
100°59'10.900" W
445.90 m
501A7AR
71447
WEI

Download Data

Hourly Data (October 2017)
Hourly Data Report for October 3, 2017
Temp Definition
°C
Dew Point Temp Definition
°C
Rel Hum Definition
%
Wind Dir Definition
10's deg

Wind Spd Definition
km/h
Visibility Definition
km
Stn Press Definition
kPa
Hmdx Definition


Wind Chill Definition


Weather Definition


TIME
00:00 4.6 0.1 73 22 8   95.85     LegendNANA
01:00 1.0 -0.9 87 18 7   95.90     LegendNANA
02:00 1.0 -1.2 85 18 6   96.03     LegendNANA
03:00 1.8 -0.8 83 22 7   96.01     LegendNANA
04:00 1.2 -1.1 84 19 7   96.08     LegendNANA
05:00 1.9 -0.6 83 21 7   96.14     LegendNANA
06:00 1.0 -0.4 90 19 5   96.17     LegendNANA
07:00 0.3 -1.0 91 17 7   96.22     LegendNANA
08:00 1.3 -0.5 88 17 10   96.27     LegendNANA
09:00 3.2 0.0 80 21 7   96.30     LegendNANA
10:00 5.1 -0.2 69 22 5   96.35     LegendNANA
11:00 5.8 0.2 67 19 6   96.39     LegendNANA
12:00 6.6 0.9 67 11 1   96.44     LegendNANA
13:00 7.1 0.8 64 16 7   96.48     LegendNANA
14:00 7.2 0.7 64 17 10   96.51     LegendNANA
15:00 7.0 0.2 62 27 6   96.58     LegendNANA
16:00 7.5 0.4 61 30 6   96.63     LegendNANA
17:00 7.4 0.5 61 30 13   96.67     LegendNANA
18:00 6.8 0.7 65 30 14   96.73     LegendNANA
19:00 6.3 1.3 70 28 8   96.82     LegendNANA
20:00 6.0 1.4 72 27 10   96.88     LegendNANA
21:00 6.2 1.3 71 26 12   96.91     LegendNANA
22:00 6.2 2.0 74 28 13   96.95     LegendNANA
23:00 6.5 2.9 78 29 12   96.98     LegendNANA

Notes on Data Quality.

Legend

  • E = Estimated
  • M = Missing
  • NA = Not Available
  • ‡ = Partner data that is not subject to review by the National Climate Archives
Date modified: